Rochester, NY

7:49 AM EDT on July 26, 2017 (GMT -0400)
Greater Rochester International

Weather History for KROC - April, 2013

Change the Weather History Date:

Friday, April 12, 2013

  Actual Average Record
Temperature  
Mean Temperature 45 °F 45 °F  
Max Temperature 54 °F 55 °F 85 °F (1945)
Min Temperature 35 °F 36 °F 20 °F (1882)
Degree Days  
Heating Degree Days 20 20  
Month to date heating degree days 284 269  
Since 1 July heating degree days 5563 6007  
Cooling Degree Days 0 0  
Month to date cooling degree days 0 0  
Year to date cooling degree days 0 0  
Moisture  
Dew Point 38 °F    
Average Humidity 83    
Maximum Humidity 100    
Minimum Humidity 66    
Precipitation  
Precipitation 0.78 in 0.09 in 1.33 in (1944)
Month to date precipitation 2.37 1.14  
Year to date precipitation 7.53 8.00  
Snow  
Snow 0.00 in 0.10 in 2.90 in (1990)
Month to date snowfall 2.3 2.4  
Since 1 July snowfall 78.1 97.6  
Snow Depth 0.00 in    
Sea Level Pressure  
Sea Level Pressure 29.70 in    
Wind  
Wind Speed 15 mph (SSE)    
Max Wind Speed 29 mph    
Max Gust Speed 37 mph    
Visibility 7 miles    
Events Rain , Thunderstorm    
T = Trace of Precipitation, MM = Missing Value Source: NWS Daily Summary

Daily Weather History Graph

Daily Weather History Graph

Search for Another Location

Airport or City:

Trip Planner

Search our weather history database for the weather conditions in past years. The results will help you decide how hot, cold, wet, or windy it might be!

Date:

Astronomy

Apr. 12, 2013 Rise Set
Actual Time 6:33 AM EDT 7:50 PM EDT
Civil Twilight 6:03 AM EDT 8:19 PM EDT
Nautical Twilight 5:28 AM EDT 8:55 PM EDT
Astronomical Twilight 4:51 AM EDT 9:32 PM EDT
Moon 7:38 AM EDT (4/12) 10:23 PM EDT (4/12)
Length of Visible Light 14h 15m
Length of Day
13h 16m
Waxing Crescent, 5% of the Moon is Illuminated
Apr 12
Waxing Crescent
Apr 18
First Quarter
Apr 25
Full
May 2
Last Quarter
May 9
New

Hourly Weather History & Observations

Time (EDT) Temp. Windchill Dew Point Humidity Pressure Visibility Wind Dir Wind Speed Gust Speed Precip Events Conditions
12:54 AM 35.1 °F 26.9 °F 30.9 °F 85% 29.96 in 10.0 mi East 11.5 mph - 0.00 in Rain Light Rain
1:48 AM 35.6 °F 26.6 °F 32.0 °F 87% 29.90 in 10.0 mi ENE 13.8 mph - 0.00 in Rain , Thunderstorm Light Thunderstorms and Rain
1:54 AM 36.0 °F 26.7 °F 32.0 °F 86% 29.92 in 5.0 mi East 15.0 mph - 0.04 in Rain , Thunderstorm Thunderstorms and Rain
2:34 AM 35.6 °F 26.2 °F 33.8 °F 93% 29.84 in 9.0 mi East 15.0 mph 23.0 mph 0.10 in   Overcast
2:54 AM 35.1 °F 24.5 °F 33.1 °F 92% 29.85 in 10.0 mi East 18.4 mph - 0.10 in   Overcast
3:54 AM 35.1 °F 24.8 °F 33.1 °F 92% 29.81 in 8.0 mi East 17.3 mph 21.9 mph 0.00 in   Light Drizzle
4:26 AM 35.6 °F 25.9 °F 33.8 °F 93% 29.78 in 5.0 mi East 16.1 mph - 0.00 in   Light Drizzle
4:54 AM 35.1 °F 25.5 °F 33.1 °F 92% 29.79 in 2.5 mi East 15.0 mph - 0.00 in   Light Drizzle
5:54 AM 35.1 °F 25.9 °F 33.1 °F 92% 29.77 in 2.5 mi East 13.8 mph - 0.01 in Rain Light Rain
6:54 AM 35.1 °F 26.4 °F 34.0 °F 96% 29.73 in 4.0 mi East 12.7 mph - 0.09 in Rain Light Rain
7:54 AM 36.0 °F 27.1 °F 35.1 °F 97% 29.67 in 3.0 mi East 13.8 mph - 0.09 in Rain Light Rain
8:54 AM 37.9 °F 30.5 °F 37.0 °F 97% 29.64 in 3.0 mi ESE 11.5 mph - 0.11 in Rain Light Rain
9:27 AM 39.2 °F 32.5 °F 37.4 °F 93% 29.60 in 3.0 mi East 10.4 mph - 0.08 in Rain Rain
9:54 AM 41.0 °F 34.7 °F 39.0 °F 93% 29.61 in 2.5 mi ESE 10.4 mph - 0.13 in Rain Rain
10:50 AM 44.6 °F 38.8 °F 42.8 °F 93% 29.56 in 4.0 mi ESE 11.5 mph - 0.10 in Rain Light Rain
10:54 AM 44.1 °F 38.1 °F 42.1 °F 93% 29.58 in 5.0 mi ESE 11.5 mph - 0.12 in Rain Light Rain
11:17 AM 44.6 °F 38.8 °F 42.8 °F 93% 29.56 in 5.0 mi SE 11.5 mph - 0.03 in Rain Rain
11:50 AM 46.4 °F 41.1 °F 44.6 °F 93% 29.55 in 9.0 mi SE 11.5 mph - 0.05 in Rain Light Rain
11:54 AM 46.9 °F - 44.1 °F 90% 29.57 in 9.0 mi SE 10.4 mph - 0.06 in Rain Light Rain
12:54 PM 52.0 °F - 46.0 °F 80% 29.55 in 10.0 mi South 12.7 mph 19.6 mph 0.01 in   Overcast
1:39 PM 51.8 °F - 46.4 °F 82% 29.54 in 4.0 mi South 10.4 mph - 0.01 in Rain Light Rain
1:54 PM 51.1 °F - 46.9 °F 86% 29.56 in 5.0 mi South 9.2 mph 20.7 mph 0.01 in Rain Light Rain
2:54 PM 54.0 °F - 48.0 °F 80% 29.58 in 8.0 mi SW 15.0 mph - 0.01 in   Overcast
3:03 PM 51.8 °F - 46.4 °F 82% 29.58 in 8.0 mi West 19.6 mph 25.3 mph 0.00 in Rain Light Freezing Rain
3:11 PM 48.2 °F - 44.6 °F 87% 29.58 in 3.0 mi West 25.3 mph 29.9 mph 0.00 in Rain Light Rain
3:19 PM 48.2 °F - 44.6 °F 87% 29.59 in 2.5 mi West 23.0 mph 31.1 mph 0.00 in Rain Light Rain
3:29 PM 48.2 °F - 44.6 °F 87% 29.59 in 8.0 mi West 26.5 mph 32.2 mph 0.00 in Rain Light Rain
3:54 PM 48.0 °F - 43.0 °F 83% 29.62 in 8.0 mi West 15.0 mph - 0.00 in   Overcast
4:54 PM 48.9 °F - 39.0 °F 69% 29.66 in 10.0 mi WSW 19.6 mph 33.4 mph N/A   Scattered Clouds
5:54 PM 48.0 °F - 37.9 °F 68% 29.69 in 10.0 mi West 25.3 mph 33.4 mph N/A   Scattered Clouds
6:54 PM 46.0 °F 39.3 °F 37.0 °F 71% 29.73 in 10.0 mi WSW 16.1 mph - N/A   Mostly Cloudy
7:31 PM 44.6 °F 37.2 °F 37.4 °F 76% 29.72 in 10.0 mi WSW 17.3 mph 23.0 mph N/A   Overcast
7:54 PM 44.1 °F 36.2 °F 37.0 °F 76% 29.75 in 10.0 mi WSW 18.4 mph 24.2 mph N/A   Overcast
8:54 PM 42.1 °F 33.6 °F 35.1 °F 76% 29.79 in 10.0 mi West 18.4 mph 27.6 mph 0.00 in   Overcast
9:54 PM 41.0 °F 33.1 °F 33.1 °F 73% 29.81 in 10.0 mi SW 15.0 mph 20.7 mph N/A   Overcast
10:54 PM 41.0 °F 32.8 °F 32.0 °F 70% 29.80 in 10.0 mi WSW 16.1 mph 24.2 mph N/A   Overcast
11:20 PM 41.0 °F 33.5 °F 32.0 °F 70% 29.77 in 10.0 mi WSW 13.8 mph 24.2 mph N/A   Overcast
11:54 PM 41.0 °F 32.2 °F 32.0 °F 70% 29.79 in 10.0 mi WSW 18.4 mph 32.2 mph N/A   Overcast